,,PressureMeas_1m,,PRMeasQMR101_1,,RHStat155_1m_1,,SRMeasQMS101R_1m,,TAStat155_1m_1,,GenWind_1,,GenWind_1,
2019-11-18, 07:00:06,VALID,918.276,VALID,0.0,VALID,99.915,VALID,62.398,VALID,19.753,VALID,122.0,VALID,0.0,
2019-11-18, 07:01:06,VALID,918.314,VALID,0.0,VALID,99.917,VALID,86.987,VALID,19.722,VALID,121.0,VALID,0.0,
2019-11-18, 07:02:06,VALID,918.325,VALID,0.0,VALID,99.915,VALID,92.945,VALID,19.722,VALID,128.0,VALID,0.0,
2019-11-18, 07:03:06,VALID,918.344,VALID,0.0,VALID,99.918,VALID,90.319,VALID,19.767,VALID,138.0,VALID,0.0,
2019-11-18, 07:04:06,VALID,918.346,VALID,0.0,VALID,99.915,VALID,78.983,VALID,19.806,VALID,109.0,VALID,0.0,
2019-11-18, 07:05:06,VALID,918.36,VALID,0.0,VALID,99.916,VALID,72.77,VALID,19.787,VALID,101.0,VALID,0.0,
2019-11-18, 07:06:06,VALID,918.359,VALID,0.0,VALID,99.918,VALID,73.146,VALID,19.811,VALID,88.0,VALID,0.0,
2019-11-18, 07:07:06,VALID,918.37,VALID,0.0,VALID,99.92,VALID,82.951,VALID,19.727,VALID,56.0,VALID,0.0,
2019-11-18, 07:08:06,VALID,918.379,VALID,0.0,VALID,99.917,VALID,103.377,VALID,19.783,VALID,63.0,VALID,0.0,
2019-11-18, 07:09:06,VALID,918.391,VALID,0.0,VALID,99.919,VALID,111.01,VALID,19.856,VALID,68.0,VALID,0.0,
2019-11-18, 07:10:06,VALID,918.392,VALID,0.0,VALID,99.917,VALID,118.34,VALID,19.918,VALID,68.0,VALID,0.0,
2019-11-18, 07:11:06,VALID,918.388,VALID,0.0,VALID,99.919,VALID,134.811,VALID,19.938,VALID,69.0,VALID,0.0,
2019-11-18, 07:12:06,VALID,918.403,VALID,0.0,VALID,99.916,VALID,130.97,VALID,19.921,VALID,105.0,VALID,0.0,
2019-11-18, 07:13:06,VALID,918.421,VALID,0.0,VALID,99.921,VALID,109.852,VALID,19.913,VALID,165.0,VALID,0.0,
2019-11-18, 07:14:06,VALID,918.443,VALID,0.0,VALID,99.915,VALID,125.204,VALID,19.979,VALID,157.0,VALID,0.0,
2019-11-18, 07:15:06,VALID,918.454,VALID,0.0,VALID,99.729,VALID,124.469,VALID,20.007,VALID,143.0,VALID,0.0,
2019-11-18, 07:16:06,VALID,918.47,VALID,0.0,VALID,99.485,VALID,128.978,VALID,20.013,VALID,174.0,VALID,0.0,
2019-11-18, 07:17:06,VALID,918.486,VALID,0.0,VALID,99.272,VALID,150.53,VALID,20.063,VALID,147.0,VALID,0.0,
2019-11-18, 07:18:06,VALID,918.51,VALID,0.0,VALID,99.031,VALID,143.224,VALID,20.124,VALID,116.0,VALID,0.0,
2019-11-18, 07:19:06,VALID,918.526,VALID,0.0,VALID,98.625,VALID,170.831,VALID,20.171,VALID,117.0,VALID,0.0,
2019-11-18, 07:20:06,VALID,918.558,VALID,0.0,VALID,98.27,VALID,190.623,VALID,20.249,VALID,112.0,VALID,0.0,
2019-11-18, 07:21:06,VALID,918.565,VALID,0.0,VALID,98.344,VALID,187.29,VALID,20.469,VALID,76.0,VALID,0.0,
2019-11-18, 07:22:06,VALID,918.576,VALID,0.0,VALID,97.924,VALID,201.087,VALID,20.622,VALID,115.0,VALID,0.0,
2019-11-18, 07:23:06,VALID,918.612,VALID,0.0,VALID,96.953,VALID,220.587,VALID,20.764,VALID,124.0,VALID,0.0,
2019-11-18, 07:24:06,VALID,918.602,VALID,0.0,VALID,95.425,VALID,194.566,VALID,20.91,VALID,135.0,VALID,0.0,
2019-11-18, 07:25:06,VALID,918.617,VALID,0.0,VALID,94.671,VALID,144.163,VALID,21.036,VALID,91.0,VALID,0.0,
2019-11-18, 07:26:06,VALID,918.637,VALID,0.0,VALID,94.365,VALID,157.671,VALID,21.163,VALID,94.0,VALID,0.0,
2019-11-18, 07:27:06,VALID,918.655,VALID,0.0,VALID,94.196,VALID,162.454,VALID,21.281,VALID,116.0,VALID,0.0,
2019-11-18, 07:28:06,VALID,918.686,VALID,0.0,VALID,93.505,VALID,158.474,VALID,21.348,VALID,133.0,VALID,0.0,
2019-11-18, 07:29:06,VALID,918.714,VALID,0.0,VALID,92.731,VALID,154.209,VALID,21.254,VALID,85.0,VALID,0.0,
2019-11-18, 07:30:06,VALID,918.714,VALID,0.0,VALID,93.588,VALID,169.671,VALID,21.076,VALID,77.0,VALID,0.0,
2019-11-18, 07:31:06,VALID,918.718,VALID,0.0,VALID,94.097,VALID,193.577,VALID,20.997,VALID,99.0,VALID,0.0,
2019-11-18, 07:32:06,VALID,918.724,VALID,0.0,VALID,93.476,VALID,183.481,VALID,20.896,VALID,124.0,VALID,0.0,
2019-11-18, 07:33:06,VALID,918.737,VALID,0.0,VALID,94.399,VALID,184.462,VALID,20.938,VALID,114.0,VALID,0.0,
2019-11-18, 07:34:06,VALID,918.744,VALID,0.0,VALID,93.761,VALID,189.537,VALID,20.956,VALID,109.0,VALID,0.0,
2019-11-18, 07:35:06,VALID,918.745,VALID,0.0,VALID,93.624,VALID,191.816,VALID,20.968,VALID,114.0,VALID,0.0,
2019-11-18, 07:36:06,VALID,918.769,VALID,0.0,VALID,93.893,VALID,219.72,VALID,21.105,VALID,102.0,VALID,0.0,
2019-11-18, 07:37:06,VALID,918.78,VALID,0.0,VALID,92.776,VALID,233.892,VALID,21.166,VALID,113.0,VALID,0.0,
2019-11-18, 07:38:06,VALID,918.813,VALID,0.0,VALID,93.165,VALID,230.867,VALID,21.287,VALID,88.0,VALID,0.0,
2019-11-18, 07:39:06,VALID,918.821,VALID,0.0,VALID,92.129,VALID,224.492,VALID,21.39,VALID,89.0,VALID,0.0,
2019-11-18, 07:40:06,VALID,918.811,VALID,0.0,VALID,91.306,VALID,235.298,VALID,21.398,VALID,84.0,VALID,0.0,
2019-11-18, 07:41:06,VALID,918.845,VALID,0.0,VALID,91.946,VALID,238.2,VALID,21.47,VALID,63.0,VALID,0.0,
2019-11-18, 07:42:06,VALID,918.886,VALID,0.0,VALID,91.175,VALID,240.813,VALID,21.694,VALID,67.0,VALID,0.0,
2019-11-18, 07:43:06,VALID,918.906,VALID,0.0,VALID,90.082,VALID,239.304,VALID,21.906,VALID,84.0,VALID,0.0,
2019-11-18, 07:44:06,VALID,918.915,VALID,0.0,VALID,89.273,VALID,253.005,VALID,22.066,VALID,119.0,VALID,0.0,
2019-11-18, 07:45:06,VALID,918.911,VALID,0.0,VALID,88.708,VALID,263.452,VALID,22.251,VALID,103.0,VALID,0.0,
2019-11-18, 07:46:06,VALID,918.928,VALID,0.0,VALID,87.29,VALID,271.419,VALID,22.53,VALID,125.0,VALID,0.0,
2019-11-18, 07:47:06,VALID,918.929,VALID,0.0,VALID,86.132,VALID,273.238,VALID,22.737,VALID,132.0,VALID,0.0,
2019-11-18, 07:48:06,VALID,918.925,VALID,0.0,VALID,86.21,VALID,277.217,VALID,22.902,VALID,156.0,VALID,0.0,
2019-11-18, 07:49:06,VALID,918.95,VALID,0.0,VALID,84.777,VALID,289.68,VALID,23.035,VALID,157.0,VALID,0.0,
2019-11-18, 07:50:06,VALID,918.96,VALID,0.0,VALID,85.157,VALID,302.922,VALID,22.932,VALID,138.0,VALID,0.0,
2019-11-18, 07:51:06,VALID,918.957,VALID,0.0,VALID,85.142,VALID,303.579,VALID,22.787,VALID,156.0,VALID,0.0,
2019-11-18, 07:52:06,VALID,918.983,VALID,0.0,VALID,86.142,VALID,299.169,VALID,22.556,VALID,198.0,VALID,0.0,
2019-11-18, 07:53:06,VALID,918.992,VALID,0.0,VALID,87.376,VALID,297.14,VALID,22.323,VALID,165.0,VALID,0.0,
2019-11-18, 07:54:06,VALID,919.005,VALID,0.0,VALID,87.732,VALID,298.111,VALID,22.351,VALID,87.0,VALID,0.0,
2019-11-18, 07:55:06,VALID,919.03,VALID,0.0,VALID,87.448,VALID,298.751,VALID,22.581,VALID,117.0,VALID,0.0,
2019-11-18, 07:56:06,VALID,919.042,VALID,0.0,VALID,85.779,VALID,299.921,VALID,22.744,VALID,163.0,VALID,0.0,
2019-11-18, 07:57:06,VALID,919.05,VALID,0.0,VALID,85.423,VALID,303.8,VALID,22.736,VALID,182.0,VALID,0.0,
2019-11-18, 07:58:06,VALID,919.087,VALID,0.0,VALID,85.717,VALID,306.568,VALID,22.554,VALID,181.0,VALID,0.0,
2019-11-18, 07:59:06,VALID,919.099,VALID,0.0,VALID,87.125,VALID,311.003,VALID,22.53,VALID,137.0,VALID,0.0,
2019-11-18, 08:00:06,VALID,919.099,VALID,0.0,VALID,85.384,VALID,316.929,VALID,22.729,VALID,98.0,VALID,0.0,
2019-11-18, 08:01:06,VALID,919.102,VALID,0.0,VALID,85.123,VALID,320.274,VALID,22.935,VALID,68.0,VALID,0.0,
2019-11-18, 08:02:06,VALID,919.1,VALID,0.0,VALID,83.832,VALID,319.426,VALID,23.23,VALID,137.0,VALID,0.0,
2019-11-18, 08:03:06,VALID,919.111,VALID,0.0,VALID,82.483,VALID,322.568,VALID,23.521,VALID,149.0,VALID,0.0,
2019-11-18, 08:04:06,VALID,919.111,VALID,0.0,VALID,81.56,VALID,325.498,VALID,23.465,VALID,171.0,VALID,0.0,
2019-11-18, 08:05:06,VALID,919.128,VALID,0.0,VALID,82.673,VALID,331.002,VALID,23.164,VALID,173.0,VALID,0.0,
2019-11-18, 08:06:06,VALID,919.131,VALID,0.0,VALID,83.953,VALID,337.028,VALID,22.937,VALID,211.0,VALID,0.0,
2019-11-18, 08:07:06,VALID,919.133,VALID,0.0,VALID,84.563,VALID,340.584,VALID,22.788,VALID,187.0,VALID,0.0,
2019-11-18, 08:08:06,VALID,919.136,VALID,0.0,VALID,84.399,VALID,344.352,VALID,22.806,VALID,211.0,VALID,0.0,
2019-11-18, 08:09:06,VALID,919.171,VALID,0.0,VALID,84.774,VALID,348.075,VALID,22.9,VALID,217.0,VALID,0.0,
2019-11-18, 08:10:06,VALID,919.175,VALID,0.0,VALID,85.852,VALID,352.244,VALID,23.104,VALID,190.0,VALID,0.0,
2019-11-18, 08:11:06,VALID,919.178,VALID,0.0,VALID,83.268,VALID,357.39,VALID,23.496,VALID,111.0,VALID,0.0,
2019-11-18, 08:12:06,VALID,919.16,VALID,0.0,VALID,82.087,VALID,363.355,VALID,23.779,VALID,229.0,VALID,0.0,
2019-11-18, 08:13:06,VALID,919.181,VALID,0.0,VALID,83.851,VALID,359.103,VALID,23.585,VALID,234.0,VALID,0.0,
2019-11-18, 08:14:06,VALID,919.188,VALID,0.0,VALID,84.007,VALID,367.676,VALID,23.429,VALID,232.0,VALID,0.0,
2019-11-18, 08:15:06,VALID,919.188,VALID,0.0,VALID,85.35,VALID,374.573,VALID,23.132,VALID,237.0,VALID,0.0,
2019-11-18, 08:16:06,VALID,919.196,VALID,0.0,VALID,87.176,VALID,377.873,VALID,22.961,VALID,237.0,VALID,0.0,
2019-11-18, 08:17:06,VALID,919.213,VALID,0.0,VALID,87.167,VALID,384.22,VALID,22.83,VALID,240.0,VALID,0.0,
2019-11-18, 08:18:06,VALID,919.226,VALID,0.0,VALID,87.189,VALID,400.328,VALID,22.77,VALID,241.0,VALID,0.0,
2019-11-18, 08:19:06,VALID,919.248,VALID,0.0,VALID,87.346,VALID,394.496,VALID,22.701,VALID,239.0,VALID,0.0,
2019-11-18, 08:20:06,VALID,919.274,VALID,0.0,VALID,88.586,VALID,405.713,VALID,22.805,VALID,265.0,VALID,0.0,
2019-11-18, 08:21:06,VALID,919.289,VALID,0.0,VALID,87.511,VALID,403.722,VALID,23.03,VALID,250.0,VALID,0.0,
2019-11-18, 08:22:06,VALID,919.307,VALID,0.0,VALID,85.906,VALID,390.573,VALID,23.168,VALID,239.0,VALID,0.0,
2019-11-18, 08:23:06,VALID,919.313,VALID,0.0,VALID,85.752,VALID,397.748,VALID,23.114,VALID,274.0,VALID,0.0,
2019-11-18, 08:24:06,VALID,919.311,VALID,0.0,VALID,86.62,VALID,337.756,VALID,23.019,VALID,242.0,VALID,0.0,
2019-11-18, 08:25:06,VALID,919.319,VALID,0.0,VALID,85.841,VALID,378.432,VALID,22.912,VALID,237.0,VALID,0.0,
2019-11-18, 08:26:06,VALID,919.306,VALID,0.0,VALID,87.337,VALID,403.242,VALID,22.894,VALID,231.0,VALID,0.0,
2019-11-18, 08:27:06,VALID,919.33,VALID,0.0,VALID,86.302,VALID,407.296,VALID,22.866,VALID,231.0,VALID,0.0,
2019-11-18, 08:28:06,VALID,919.326,VALID,0.0,VALID,86.847,VALID,359.809,VALID,22.776,VALID,244.0,VALID,0.0,
2019-11-18, 08:29:06,VALID,919.328,VALID,0.0,VALID,87.355,VALID,281.406,VALID,22.854,VALID,225.0,VALID,0.0,
2019-11-18, 08:30:06,VALID,919.342,VALID,0.0,VALID,86.626,VALID,296.326,VALID,22.903,VALID,220.0,VALID,0.0,
2019-11-18, 08:31:06,VALID,919.363,VALID,0.0,VALID,85.82,VALID,401.704,VALID,22.944,VALID,217.0,VALID,0.0,
2019-11-18, 08:32:06,VALID,919.358,VALID,0.0,VALID,86.232,VALID,420.474,VALID,22.969,VALID,232.0,VALID,0.0,
2019-11-18, 08:33:06,VALID,919.371,VALID,0.0,VALID,86.355,VALID,383.754,VALID,23.097,VALID,234.0,VALID,0.0,
2019-11-18, 08:34:06,VALID,919.364,VALID,0.0,VALID,85.213,VALID,417.543,VALID,23.297,VALID,235.0,VALID,0.0,
2019-11-18, 08:35:06,VALID,919.373,VALID,0.0,VALID,84.302,VALID,348.51,VALID,23.303,VALID,240.0,VALID,0.0,
2019-11-18, 08:36:06,VALID,919.366,VALID,0.0,VALID,85.149,VALID,422.788,VALID,23.362,VALID,238.0,VALID,0.0,
2019-11-18, 08:37:06,VALID,919.365,VALID,0.0,VALID,84.008,VALID,308.633,VALID,23.459,VALID,236.0,VALID,0.0,
2019-11-18, 08:38:06,VALID,919.376,VALID,0.0,VALID,83.465,VALID,301.715,VALID,23.463,VALID,233.0,VALID,0.0,
2019-11-18, 08:39:06,VALID,919.379,VALID,0.0,VALID,82.809,VALID,443.279,VALID,23.524,VALID,185.0,VALID,0.0,
2019-11-18, 08:40:06,VALID,919.383,VALID,0.0,VALID,82.398,VALID,408.33,VALID,23.65,VALID,231.0,VALID,0.0,
2019-11-18, 08:41:06,VALID,919.388,VALID,0.0,VALID,82.029,VALID,292.603,VALID,23.615,VALID,236.0,VALID,0.0,
2019-11-18, 08:42:06,VALID,919.376,VALID,0.0,VALID,82.614,VALID,414.824,VALID,23.497,VALID,251.0,VALID,0.0,
2019-11-18, 08:43:06,VALID,919.356,VALID,0.0,VALID,81.924,VALID,462.738,VALID,23.49,VALID,225.0,VALID,0.0,
2019-11-18, 08:44:06,VALID,919.356,VALID,0.0,VALID,81.92,VALID,418.089,VALID,23.57,VALID,218.0,VALID,0.0,
2019-11-18, 08:45:06,VALID,919.342,VALID,0.0,VALID,82.107,VALID,445.962,VALID,23.561,VALID,223.0,VALID,0.0,
2019-11-18, 08:46:06,VALID,919.354,VALID,0.0,VALID,81.894,VALID,496.825,VALID,23.646,VALID,266.0,VALID,0.0,
2019-11-18, 08:47:06,VALID,919.36,VALID,0.0,VALID,80.623,VALID,510.338,VALID,23.755,VALID,292.0,VALID,0.0,
2019-11-18, 08:48:06,VALID,919.375,VALID,0.0,VALID,80.78,VALID,491.591,VALID,23.888,VALID,319.0,VALID,0.0,
2019-11-18, 08:49:06,VALID,919.385,VALID,0.0,VALID,79.689,VALID,486.146,VALID,24.108,VALID,233.0,VALID,0.0,
2019-11-18, 08:50:06,VALID,919.392,VALID,0.0,VALID,79.489,VALID,522.378,VALID,24.083,VALID,275.0,VALID,0.0,
2019-11-18, 08:51:06,VALID,919.374,VALID,0.0,VALID,79.021,VALID,466.049,VALID,24.315,VALID,295.0,VALID,0.0,
2019-11-18, 08:52:06,VALID,919.378,VALID,0.0,VALID,78.122,VALID,522.132,VALID,24.482,INVALID,360.0,VALID,0.0,
2019-11-18, 08:53:06,VALID,919.364,VALID,0.0,VALID,78.973,VALID,483.602,VALID,24.509,INVALID,360.0,VALID,0.0,
2019-11-18, 08:54:06,VALID,919.354,VALID,0.0,VALID,78.394,VALID,278.011,VALID,24.57,INVALID,360.0,VALID,0.0,
2019-11-18, 08:55:06,VALID,919.346,VALID,0.0,VALID,78.378,VALID,364.316,VALID,24.439,INVALID,360.0,VALID,0.0,
2019-11-18, 08:56:06,VALID,919.343,VALID,0.0,VALID,78.838,VALID,501.402,VALID,24.302,INVALID,360.0,VALID,0.0,
2019-11-18, 08:57:06,VALID,919.325,VALID,0.0,VALID,79.205,VALID,471.415,VALID,24.428,INVALID,360.0,VALID,0.0,
2019-11-18, 08:58:06,VALID,919.31,VALID,0.0,VALID,77.61,VALID,374.486,VALID,24.703,INVALID,360.0,VALID,0.0,
2019-11-18, 08:59:06,VALID,919.289,VALID,0.0,VALID,75.595,VALID,555.385,VALID,24.935,INVALID,360.0,VALID,0.0,
2019-11-18, 09:00:06,VALID,919.279,VALID,0.0,VALID,73.348,VALID,568.447,VALID,25.306,INVALID,360.0,VALID,0.0,
2019-11-18, 09:01:06,VALID,919.275,VALID,0.0,VALID,72.517,VALID,537.469,VALID,25.517,INVALID,360.0,VALID,0.0,
2019-11-18, 09:02:06,VALID,919.263,VALID,0.0,VALID,72.937,VALID,576.706,VALID,25.367,INVALID,360.0,VALID,0.0,
2019-11-18, 09:03:06,VALID,919.267,VALID,0.0,VALID,74.47,VALID,581.508,VALID,25.06,INVALID,360.0,VALID,0.0,
2019-11-18, 09:04:06,VALID,919.25,VALID,0.0,VALID,74.375,VALID,560.295,VALID,25.002,INVALID,360.0,VALID,0.0,
2019-11-18, 09:05:06,VALID,919.251,VALID,0.0,VALID,73.693,VALID,489.327,VALID,24.878,INVALID,360.0,VALID,0.0,
2019-11-18, 09:06:06,VALID,919.226,VALID,0.0,VALID,75.085,VALID,494.435,VALID,24.649,INVALID,360.0,VALID,0.0,
2019-11-18, 09:07:06,VALID,919.231,VALID,0.0,VALID,75.48,VALID,348.725,VALID,24.759,INVALID,360.0,VALID,0.0,
2019-11-18, 09:08:06,VALID,919.226,VALID,0.0,VALID,75.149,VALID,346.013,VALID,24.917,INVALID,360.0,VALID,0.0,
2019-11-18, 09:09:06,VALID,919.216,VALID,0.0,VALID,74.768,VALID,475.638,VALID,24.879,INVALID,360.0,VALID,0.0,
2019-11-18, 09:10:06,VALID,919.222,VALID,0.0,VALID,75.835,VALID,273.518,VALID,24.661,INVALID,360.0,VALID,0.0,
2019-11-18, 09:11:06,VALID,919.208,VALID,0.0,VALID,76.889,VALID,253.044,VALID,24.428,INVALID,360.0,VALID,0.0,
2019-11-18, 09:12:06,VALID,919.219,VALID,0.0,VALID,77.376,VALID,368.352,VALID,24.277,INVALID,360.0,VALID,0.0,
2019-11-18, 09:13:06,VALID,919.177,VALID,0.0,VALID,77.492,VALID,462.947,VALID,24.132,INVALID,360.0,VALID,0.0,
2019-11-18, 09:14:06,VALID,919.151,VALID,0.0,VALID,78.369,VALID,427.178,VALID,24.013,INVALID,360.0,VALID,0.0,
2019-11-18, 09:15:06,VALID,919.125,VALID,0.0,VALID,79.81,VALID,474.63,VALID,24.03,INVALID,360.0,VALID,0.0,
2019-11-18, 09:16:06,VALID,919.09,VALID,0.0,VALID,79.715,VALID,449.942,VALID,24.132,INVALID,360.0,VALID,0.0,
2019-11-18, 09:17:06,VALID,919.083,VALID,0.0,VALID,80.125,VALID,675.211,VALID,24.299,INVALID,360.0,VALID,0.0,
2019-11-18, 09:18:06,VALID,919.083,VALID,0.0,VALID,78.667,VALID,668.604,VALID,24.528,INVALID,360.0,VALID,0.0,
2019-11-18, 09:19:06,VALID,919.069,VALID,0.0,VALID,78.184,VALID,555.792,VALID,24.586,INVALID,360.0,VALID,0.0,
2019-11-18, 09:20:06,VALID,919.098,VALID,0.0,VALID,78.26,VALID,625.98,VALID,24.468,INVALID,360.0,VALID,0.0,
2019-11-18, 09:21:06,VALID,919.089,VALID,0.0,VALID,78.525,VALID,389.066,VALID,24.416,INVALID,360.0,VALID,0.0,
2019-11-18, 09:22:06,VALID,919.092,VALID,0.0,VALID,78.16,VALID,421.858,VALID,24.495,INVALID,360.0,VALID,0.0,
2019-11-18, 09:23:06,VALID,919.065,VALID,0.0,VALID,78.411,VALID,620.508,VALID,24.469,INVALID,360.0,VALID,0.0,
2019-11-18, 09:24:06,VALID,919.059,VALID,0.0,VALID,78.23,VALID,648.526,VALID,24.372,INVALID,360.0,VALID,0.0,
2019-11-18, 09:25:06,VALID,919.069,VALID,0.0,VALID,79.172,VALID,492.815,VALID,24.226,INVALID,360.0,VALID,0.0,
2019-11-18, 09:26:06,VALID,919.034,VALID,0.0,VALID,78.901,VALID,635.511,VALID,24.185,INVALID,360.0,VALID,0.0,
2019-11-18, 09:27:06,VALID,919.009,VALID,0.0,VALID,79.007,VALID,649.31,VALID,24.107,INVALID,360.0,VALID,0.0,
2019-11-18, 09:28:06,VALID,919.008,VALID,0.0,VALID,80.352,VALID,608.685,VALID,24.155,INVALID,360.0,VALID,0.0,
2019-11-18, 09:29:06,VALID,918.99,VALID,0.0,VALID,78.898,VALID,652.613,VALID,24.345,INVALID,360.0,VALID,0.0,
2019-11-18, 09:30:06,VALID,918.964,VALID,0.0,VALID,78.768,VALID,647.73,VALID,24.523,INVALID,360.0,VALID,0.0,
2019-11-18, 09:31:06,VALID,918.941,VALID,0.0,VALID,77.396,VALID,652.919,VALID,24.759,INVALID,360.0,VALID,0.0,
2019-11-18, 09:32:06,VALID,918.922,VALID,0.0,VALID,76.577,VALID,625.814,VALID,24.962,INVALID,360.0,VALID,0.0,
2019-11-18, 09:33:06,VALID,918.916,VALID,0.0,VALID,74.638,VALID,661.669,VALID,25.156,INVALID,360.0,VALID,0.0,
2019-11-18, 09:34:06,VALID,918.902,VALID,0.0,VALID,73.634,VALID,669.115,VALID,25.125,INVALID,360.0,VALID,0.0,
2019-11-18, 09:35:06,VALID,918.863,VALID,0.0,VALID,74.922,VALID,484.539,VALID,25.108,INVALID,360.0,VALID,0.0,
2019-11-18, 09:36:06,VALID,918.838,VALID,0.0,VALID,75.629,VALID,703.189,VALID,25.237,INVALID,360.0,VALID,0.0,
2019-11-18, 09:37:06,VALID,918.825,VALID,0.0,VALID,73.895,VALID,712.716,VALID,25.388,INVALID,360.0,VALID,0.0,
2019-11-18, 09:38:06,VALID,918.815,VALID,0.0,VALID,73.988,VALID,718.909,VALID,25.46,INVALID,360.0,VALID,0.0,
2019-11-18, 09:39:06,VALID,918.804,VALID,0.0,VALID,74.702,VALID,727.169,VALID,25.566,INVALID,360.0,VALID,0.0,
2019-11-18, 09:40:06,VALID,918.788,VALID,0.0,VALID,74.877,VALID,739.236,VALID,25.801,INVALID,360.0,VALID,0.0,
2019-11-18, 09:41:06,VALID,918.775,VALID,0.0,VALID,72.836,VALID,743.876,VALID,25.801,VALID,239.0,VALID,0.0,
2019-11-18, 09:42:06,VALID,918.787,VALID,0.0,VALID,74.373,VALID,738.487,VALID,25.649,VALID,259.0,VALID,0.0,
2019-11-18, 09:43:06,VALID,918.795,VALID,0.0,VALID,74.167,VALID,752.148,VALID,25.805,VALID,327.0,VALID,0.0,
2019-11-18, 09:44:06,VALID,918.785,VALID,0.0,VALID,73.957,VALID,740.669,VALID,26.066,VALID,237.0,VALID,0.0,
2019-11-18, 09:45:06,VALID,918.785,VALID,0.0,VALID,70.969,VALID,717.305,VALID,26.333,VALID,219.0,VALID,0.0,
2019-11-18, 09:46:06,VALID,918.787,VALID,0.0,VALID,71.38,VALID,708.925,VALID,26.323,VALID,240.0,VALID,0.0,
2019-11-18, 09:47:06,VALID,918.796,VALID,0.0,VALID,71.926,VALID,720.24,VALID,26.285,VALID,275.0,VALID,0.0,
2019-11-18, 09:48:07,VALID,918.777,VALID,0.0,VALID,71.392,VALID,716.181,VALID,26.393,VALID,166.0,VALID,0.0,
2019-11-18, 09:49:07,VALID,918.786,VALID,0.0,VALID,71.042,VALID,744.258,VALID,26.531,VALID,180.0,VALID,0.0,
2019-11-18, 09:50:07,VALID,918.775,VALID,0.0,VALID,70.37,VALID,692.42,VALID,26.5,VALID,205.0,VALID,0.0,
2019-11-18, 09:51:07,VALID,918.762,VALID,0.0,VALID,70.498,VALID,717.028,VALID,26.417,VALID,150.0,VALID,0.0,
2019-11-18, 09:52:07,VALID,918.785,VALID,0.0,VALID,70.076,VALID,650.033,VALID,26.357,VALID,218.0,VALID,0.0,
2019-11-18, 09:53:07,VALID,918.79,VALID,0.0,VALID,70.847,VALID,451.285,VALID,26.307,VALID,201.0,VALID,0.0,
2019-11-18, 09:54:07,VALID,918.819,VALID,0.0,VALID,70.437,VALID,466.75,VALID,26.28,VALID,170.0,VALID,0.0,
2019-11-18, 09:55:07,VALID,918.828,VALID,0.0,VALID,70.591,VALID,774.636,VALID,26.231,VALID,123.0,VALID,0.0,
2019-11-18, 09:56:07,VALID,918.832,VALID,0.0,VALID,71.403,VALID,841.071,VALID,26.163,VALID,161.0,VALID,0.0,
2019-11-18, 09:57:07,VALID,918.779,VALID,0.0,VALID,70.512,VALID,826.849,VALID,26.151,VALID,179.0,VALID,0.0,
2019-11-18, 09:58:07,VALID,918.737,VALID,0.0,VALID,67.058,VALID,800.679,VALID,26.315,VALID,231.0,VALID,0.0,
2019-11-18, 09:59:07,VALID,918.763,VALID,0.0,VALID,67.485,VALID,521.24,VALID,26.754,VALID,2.0,VALID,0.0,
2019-11-18, 10:00:07,VALID,918.768,VALID,0.0,VALID,61.879,VALID,424.093,VALID,26.774,VALID,34.0,VALID,0.0,
2019-11-18, 10:01:07,VALID,918.767,VALID,0.0,VALID,62.719,VALID,543.136,VALID,26.504,VALID,118.0,VALID,0.0,
2019-11-18, 10:02:07,VALID,918.756,VALID,0.0,VALID,64.572,VALID,671.907,VALID,26.504,VALID,108.0,VALID,0.0,
2019-11-18, 10:03:07,VALID,918.763,VALID,0.0,VALID,64.443,VALID,869.243,VALID,26.47,VALID,119.0,VALID,0.0,
2019-11-18, 10:04:07,VALID,918.734,VALID,0.0,VALID,63.082,VALID,888.273,VALID,26.55,VALID,146.0,VALID,0.0,
2019-11-18, 10:05:07,VALID,918.738,VALID,0.0,VALID,64.915,VALID,881.385,VALID,26.577,VALID,86.0,VALID,0.0,
2019-11-18, 10:06:07,VALID,918.703,VALID,0.0,VALID,65.347,VALID,824.036,VALID,26.737,VALID,62.0,VALID,0.0,
2019-11-18, 10:07:07,VALID,918.694,VALID,0.0,VALID,64.224,VALID,896.316,VALID,26.79,VALID,40.0,VALID,0.0,
2019-11-18, 10:08:07,VALID,918.696,VALID,0.0,VALID,62.266,VALID,809.702,VALID,27.065,VALID,86.0,VALID,0.0,
2019-11-18, 10:09:07,VALID,918.714,VALID,0.0,VALID,61.877,VALID,845.933,VALID,27.057,VALID,97.0,VALID,0.0,
2019-11-18, 10:10:07,VALID,918.695,VALID,0.0,VALID,63.037,VALID,846.658,VALID,27.084,VALID,82.0,VALID,0.0,
2019-11-18, 10:11:07,VALID,918.69,VALID,0.0,VALID,62.622,VALID,850.815,VALID,27.147,VALID,82.0,VALID,0.0,
2019-11-18, 10:12:07,VALID,918.689,VALID,0.0,VALID,61.703,VALID,845.866,VALID,27.358,VALID,72.0,VALID,0.0,
2019-11-18, 10:13:07,VALID,918.676,VALID,0.0,VALID,61.5,VALID,861.973,VALID,27.232,VALID,68.0,VALID,0.0,
2019-11-18, 10:14:07,VALID,918.687,VALID,0.0,VALID,61.521,VALID,806.894,VALID,27.216,VALID,95.0,VALID,0.0,
2019-11-18, 10:15:07,VALID,918.685,VALID,0.0,VALID,60.372,VALID,846.206,VALID,26.873,VALID,93.0,VALID,0.0,
2019-11-18, 10:16:07,VALID,918.679,VALID,0.0,VALID,62.616,VALID,893.066,VALID,26.499,VALID,84.0,VALID,0.0,
2019-11-18, 10:17:07,VALID,918.7,VALID,0.0,VALID,63.822,VALID,865.216,VALID,26.547,VALID,92.0,VALID,0.0,
2019-11-18, 10:18:07,VALID,918.652,VALID,0.0,VALID,62.021,VALID,805.314,VALID,26.363,VALID,84.0,VALID,0.0,
2019-11-18, 10:19:07,VALID,918.656,VALID,0.0,VALID,63.618,VALID,590.919,VALID,26.227,VALID,93.0,VALID,0.0,
2019-11-18, 10:20:07,VALID,918.623,VALID,0.0,VALID,63.312,VALID,791.792,VALID,26.32,VALID,116.0,VALID,0.0,
2019-11-18, 10:21:07,VALID,918.623,VALID,0.0,VALID,63.08,VALID,818.587,VALID,26.636,VALID,109.0,VALID,0.0,
2019-11-18, 10:22:07,VALID,918.652,VALID,0.0,VALID,63.384,VALID,887.142,VALID,26.793,VALID,98.0,VALID,0.0,
2019-11-18, 10:23:07,VALID,918.648,VALID,0.0,VALID,61.368,VALID,767.146,VALID,26.75,VALID,91.0,VALID,0.0,
2019-11-18, 10:24:07,VALID,918.608,VALID,0.0,VALID,62.753,VALID,758.582,VALID,26.817,VALID,114.0,VALID,0.0,
2019-11-18, 10:25:07,VALID,918.589,VALID,0.0,VALID,61.904,VALID,733.148,VALID,27.108,VALID,106.0,VALID,0.0,
2019-11-18, 10:26:07,VALID,918.607,VALID,0.0,VALID,62.301,VALID,837.216,VALID,27.087,VALID,100.0,VALID,0.0,
2019-11-18, 10:27:07,VALID,918.577,VALID,0.0,VALID,61.63,VALID,681.686,VALID,27.35,VALID,49.0,VALID,0.0,
2019-11-18, 10:28:07,VALID,918.594,VALID,0.0,VALID,59.844,VALID,423.228,VALID,27.46,VALID,81.0,VALID,0.0,
2019-11-18, 10:29:07,VALID,918.571,VALID,0.0,VALID,60.378,VALID,461.173,VALID,27.141,VALID,120.0,VALID,0.0,
2019-11-18, 10:30:07,VALID,918.571,VALID,0.0,VALID,61.413,VALID,764.145,VALID,26.916,VALID,123.0,VALID,0.0,
2019-11-18, 10:31:07,VALID,918.572,VALID,0.0,VALID,61.656,VALID,911.151,VALID,26.993,VALID,108.0,VALID,0.0,
2019-11-18, 10:32:07,VALID,918.559,VALID,0.0,VALID,62.697,VALID,836.022,VALID,27.323,VALID,68.0,VALID,0.0,
2019-11-18, 10:33:07,VALID,918.533,VALID,0.0,VALID,61.979,VALID,530.183,VALID,27.658,VALID,51.0,VALID,0.0,
2019-11-18, 10:34:07,VALID,918.534,VALID,0.0,VALID,60.005,VALID,535.893,VALID,27.458,VALID,50.0,VALID,0.0,
2019-11-18, 10:35:07,VALID,918.516,VALID,0.0,VALID,60.748,VALID,418.081,VALID,27.322,VALID,71.0,VALID,0.0,
2019-11-18, 10:36:07,VALID,918.493,VALID,0.0,VALID,65.092,VALID,504.236,VALID,26.756,VALID,9.0,VALID,0.0,
2019-11-18, 10:37:07,VALID,918.51,VALID,0.0,VALID,67.518,VALID,393.474,VALID,26.637,VALID,327.0,VALID,0.0,
2019-11-18, 10:38:07,VALID,918.495,VALID,0.0,VALID,68.188,VALID,440.724,VALID,26.615,VALID,352.0,VALID,0.0,